Tracking 20060 objects as of 6-Dec-2019
HD Live streaming from Space Station
objects crossing your sky now

GB 2

Track GB 2 now!
10-day predictions
GB 2 is classified as:


NORAD ID: 14144
Int'l Code: 1983-056D
Perigee: 384.0 km
Apogee: 1,744.1 km
Inclination: 63.3 °
Period: 106.3 minutes
Semi major axis: 7435 km
RCS: Unknown
Launch date: June 9, 1983
Source: United States (US)
Launch site: AIR FORCE WESTERN TEST RANGE (AFWTR)
aabbcc
Your satellite tracking list
Your tracking list is empty




NASA's NSSDC Master Catalog

Two Line Element Set (TLE):
1 14144U 83056D   19339.90088543 +.00000667 +00000-0 +63962-4 0  9997
2 14144 063.2948 214.1664 0914696 088.8015 281.7513 13.54182931030666
Source of the keplerian elements: McCants